Regional Weather Roundup
Issued by NWS

Home | Current Version | Previous Version | Text Only | Print | Product List | Glossary Off
Versions: 1 2 3 4 5 6 7 8 9 10 11 12 13 14 15 16 17 18 19 20 21 22 23 24 25 26 27 28 29 30 31 32 33 34 35 36 37 38 39 40 41 42 43 44 45 46 47 48 49 50

812
ASUS43 KMPX 280010
RWRMN
WEATHER ROUNDUP FOR MINNESOTA
NATIONAL WEATHER SERVICE TWIN CITIES/CHANHASSEN MN
700 PM CDT SAT AUG 27 2016


NOTE: "FAIR" INDICATES FEW OR NO CLOUDS BELOW 12,000 FEET WITH NO
SIGNIFICANT WEATHER AND/OR OBSTRUCTIONS TO VISIBILITY. N/A MEANS
CURRENT SKY AND/OR WEATHER CONDITIONS ARE NOT AVAILABLE.

MNZ060>063-068>070-280100-
   Twin Cities Metro

CITY           SKY/WX    TMP DP  RH WIND       PRES   REMARKS
TWIN CITIES    CLOUDY    68  62  81 CALM      30.01R
6HR MIN TEMP:  65; 6HR MAX TEMP:  68; 6HR PCP: TRACE;

ST PAUL        CLOUDY    67  63  87 CALM      30.01S
CRYSTAL        CLOUDY    67  61  81 CALM      30.00R
BLAINE         CLOUDY    66  66 100 CALM      30.01R
LAKEVILLE      CLOUDY    66  66 100 CALM      30.01R
EDEN PRAIRIE   CLOUDY    69  62  78 CALM      30.00R
6HR MIN TEMP:  66; 6HR MAX TEMP:  69;

LAKEVILLE      CLOUDY    66  66 100 CALM      30.01R
SOUTH ST PAUL  CLOUDY    67  64  93 CALM      30.00S
LAKE ELMO      CLOUDY    64  64 100 S3        30.02S
$$
MNZ001>005-007-008-013>017-022>024-027-028-280100-
   Northwest Minnesota

CITY           SKY/WX    TMP DP  RH WIND       PRES   REMARKS
BEMIDJI        CLOUDY    59  55  88 E5        29.99S
HALLOCK        PTSUNNY   66  64  94 S8        29.89R
ROSEAU         MOSUNNY   63  57  82 S5        29.94R
WARROAD        CLOUDY    63  57  82 S3        29.95R
THIEF RVR FALL CLOUDY    65  59  81 CALM      29.94F
CROOKSTON      CLOUDY    66  61  82 S14       29.92F
FOSSTON        LGT RAIN  61  57  88 SE5       29.97S
DETROIT LAKES  MOSUNNY   70  59  68 S7        29.98R
MOORHEAD       MOSUNNY   70  61  73 SE10G17   29.93S
PARK RAPIDS    MOSUNNY   69  56  62 S8        29.98S
MAHNOMEN       FAIR      64  57  79 SE3       29.95R
$$
MNZ006-009>011-018-025>026-280100-
   North Central Minnesota

CITY           SKY/WX    TMP DP  RH WIND       PRES   REMARKS
BAUDETTE       CLOUDY    60  57  89 SE5       29.96S
FLAG ISLAND    CLOUDY    63  55  77 CALM      29.94R HAZE
INTL FALLS     LGT RAIN  56  54  93 CALM      29.97F
6HR MIN TEMP:  56; 6HR MAX TEMP:  68; 6HR PCP:  0.49;

WASKISH        CLOUDY    59  57  94 CALM      29.98S
BIG FORK       CLOUDY    55  55 100 S5        30.00S
LONGVILLE      PTSUNNY   63  57  82 CALM      30.00S
GRAND RAPIDS   CLOUDY    56  55  97 SE3       30.04F
CRANE LAKE     CLOUDY    55  54  94 W2        30.06R
ORR            LGT RAIN  55  52  88 CALM      30.00F
COOK           RAIN      55  54  94 CALM      30.05R
WALKER         FAIR      59  55  84 E5        29.99S
$$
MNZ012-019>021-037-280100-
   Northeast Minnesota

CITY           SKY/WX    TMP DP  RH WIND       PRES   REMARKS
DULUTH         LGT RAIN  62  60  93 CALM      30.03R FOG
6HR MIN TEMP:  62; 6HR MAX TEMP:  64; 6HR PCP:  0.01;

ELY            CLOUDY    63  52  67 SE6       30.02R
HIBBING        LGT RAIN  54  53  97 CALM      30.06R
EVELETH        HVY RAIN  58  54  86 N13G25    30.06R
DULUTH HARBOR  RAIN      64  61  88 E8        30.02R
TWO HARBORS    CLOUDY    64  59  82 CALM      30.02R
SILVER BAY     CLOUDY    63  61  94 NE5       30.02S
GRAND MARAIS     N/A     62  52  69 NE5       30.03S
G MARAIS ARPRT CLOUDY    55  48  76 NE5       30.06F
$$
MNZ029>031-032-039>041-046>048-054>057-064-280100-
   West Central Minnesota

CITY           SKY/WX    TMP DP  RH WIND       PRES   REMARKS
FERGUS FALLS   SUNNY     66  61  82 S10       29.97S
WHEATON        SUNNY     72  63  73 SE14      29.96S
MORRIS         SUNNY     72  59  64 SE7       29.97S
ALEXANDRIA     SUNNY     68  58  70 S10       30.00F
ELBOW LAKE     FAIR      68  58  71 S9        29.98S
WADENA         MOSUNNY   66  57  72 S7        29.98F
GLENWOOD       SUNNY     68  59  73 S7        30.01S
APPLETON       MOSUNNY   72  61  68 E8        29.97S
BENSON         SUNNY     70  57  64 S7        29.99S
ORTONVILLE     SUNNY     72  61  68 SE9       29.96S
MADISON        SUNNY     73  61  64 S6        29.98R
WILLMAR        FAIR      72  63  73 CALM      30.01S
$$
MNZ033>034-036-042>043-049>051-058-059-280100-
   Central Minnesota

CITY           SKY/WX    TMP DP  RH WIND       PRES   REMARKS
ST CLOUD       CLOUDY    64  62  93 NE3       30.01S
6HR MIN TEMP:  62; 6HR MAX TEMP:  66; 6HR PCP:  0.01;

SAUK CENTRE    FAIR      67  59  75 S7        29.99F
PAYNESVILLE    MOSUNNY   67  60  77 CALM      30.02R
AITKIN         PTCLDY    66  57  72 SE7       30.00S
PINE RIVER     CLOUDY    66  57  72 SE6       30.03S
BRAINERD       MOSUNNY   64  59  83 SE7       30.01R
STAPLES        MOSUNNY   64  55  72 S6        30.00R
LONG PRAIRIE   FAIR      64  59  82 SE7       30.00S
LITTLE FALLS   MOSUNNY   64  57  77 SE9       29.99F
LITCHFIELD     MOSUNNY   70  64  83 CALM      30.02R
BUFFALO        CLOUDY    67  61  80 CALM      30.02R
MAPLE LAKE     CLOUDY    66  64  93 CALM      30.02S
HUTCHINSON     PTSUNNY   71  64  78 W5        30.02R
$$
MNZ037-044-045-052-053-280100-
   East Central Minnesota

CITY           SKY/WX    TMP DP  RH WIND       PRES   REMARKS
PRINCETON      CLOUDY    64  63  94 CALM      30.02R
MORA           CLOUDY    59  57  94 CALM      30.04R FOG
CAMBRIDGE      CLOUDY    64  61  88 CALM      30.00R
RUSH CITY      LGT RAIN  63  61  95 CALM      30.02S
MOOSE LAKE     DRIZZLE   61  59  94 CALM      30.01S
HINCKLEY       CLOUDY    61  61 100 CALM      30.02S
CLOQUET        LGT RAIN  63  59  88 CALM      30.03R
MCGREGOR       PTCLDY    63  59  88 SE7       30.01F
$$
MNZ071>073-080-081-089-090-097-098-280100-
   Southwest Minnesota

CITY           SKY/WX    TMP DP  RH WIND       PRES   REMARKS
MONTEVIDEO     MOSUNNY   72  63  73 S3        30.01R
GRANITE FALLS  MOSUNNY   73  63  71 CALM      30.01R
CANBY          SUNNY     74  62  64 SW3       29.99R
MARSHALL       SUNNY     74  63  68 S5        29.99R
REDWOOD FALLS  SUNNY     72  61  68 SW6       29.99R
OLIVIA         PTSUNNY   70  63  78 CALM      29.99S
PIPESTONE      SUNNY     73  63  68 S5        30.00S
WINDOM         SUNNY     73  63  68 SW6       30.01R
WORTHINGTON    SUNNY     72  63  73 S6        30.02R
JACKSON          N/A     73  61  64 SW5       30.02S
TRACY          SUNNY     73  64  72 SW6       30.00R
SLAYTON        SUNNY     72  63  73 SW5       30.01S
$$
MNZ065>067-074>077-082>085-091>093-280100-
   South Central Minnesota

CITY           SKY/WX    TMP DP  RH WIND       PRES   REMARKS
MANKATO        CLEAR     72  63  73 W5        30.01R
NEW ULM        PTSUNNY   72  64  78 SW3       30.00R
ST JAMES       SUNNY     66  59  77 CALM      30.01S
FAIRMONT       SUNNY     73  64  73 W5        30.01S
GLENCOE        MOCLDY    70  65  86 CALM      30.00S
FARIBAULT      MOCLDY    70  64  83 CALM      30.02R
OWATONNA       PTCLDY    72  63  73 CALM      30.01S
WASECA         CLEAR     70  63  78 CALM      30.03R
ALBERT LEA     MOCLDY    72  66  83 CALM      30.02R
$$
MNZ078>079-086>088-094>096-280100-
   Southeast Minnesota

CITY           SKY/WX    TMP DP  RH WIND       PRES   REMARKS
ROCHESTER      CLOUDY    70  66  87 CALM      30.03R
6HR MIN TEMP:  67; 6HR MAX TEMP:  71;

RED WING       CLOUDY    68  66  94 CALM      30.00S
STANTON        PTCLDY    70  64  83 CALM      30.00S
DODGE CENTER   MOCLDY    70  63  78 W5        30.03R
WINONA         CLOUDY    70  64  83 SE5       30.02R
AUSTIN         CLOUDY    72  64  78 CALM      30.02R
PRESTON        CLOUDY    69  64  84 CALM      30.04R
$$
ABBREVIATIONS USED IN REMARKS
   TC - TEMPERATURES IN CELSIUS
  WCI - WIND CHILL INDEX
   HX - HEAT INDEX
  VSB - VISIBILITY
$$




USA.gov is the U.S. government's official web portal to all federal, state and local government web resources and services.